T 2003 Apr. 25.477 TT MPC q 2.87560 (2000.0) P Q n 0.061166 Peri. 194.900 -0.972114 +0.234468 a 6.37966 Node 358.636 -0.191333 -0.804009 e 0.54925 Incl. 10.827 -0.135598 -0.546438 P 16.1 >From 59 observations 2003 Mar. 27-Apr. 7.
m1 = 13.5 + 5 logΔ + 10.0 log r